| time (UTC) | temp F | wind direction | speed MPH | gust MPH | rain 1hr in | rain 24hr in | rain mn in | humidity % | barometer mb |
| 20260905062527 | 59 | 360 | 3.0 | 5.0 | 0.00 | 0.00 | 0.00 | 36 | 1011.8 |
| 20260905062025 | 59 | 360 | 1.0 | 3.0 | 0.00 | 0.00 | 0.00 | 38 | 1011.8 |
| 20260905061548 | 59 | 360 | 1.0 | 4.0 | 0.00 | 0.00 | 0.00 | 38 | 1011.7 |
| 20260905061025 | 60 | 360 | 1.0 | 4.0 | 0.00 | 0.00 | 0.00 | 39 | 1011.7 |
| 20260905060526 | 60 | 0 | 0.0 | 4.0 | 0.00 | 0.00 | 0.00 | 38 | 1011.7 |
| 20260905060051 | 60 | 0 | 0.0 | 4.0 | 0.00 | 0.00 | 0.00 | 37 | 1011.6 |
| 20260905055526 | 60 | 360 | 3.0 | 4.0 | 0.00 | 0.00 | 0.00 | 37 | 1011.6 |
| 20260905055025 | 61 | 360 | 0.0 | 5.0 | 0.00 | 0.00 | 0.00 | 38 | 1011.4 |
| 20260905054555 | 61 | 0 | 1.0 | 5.0 | 0.00 | 0.00 | 0.00 | 35 | 1011.5 |
| 20260905054029 | 61 | 360 | 3.0 | 5.0 | 0.00 | 0.00 | 0.00 | 36 | 1011.4 |
| 20260905053526 | 61 | 0 | 0.0 | 4.0 | 0.00 | 0.00 | 0.00 | 35 | 1011.5 |
| 20260905053052 | 61 | 0 | 0.0 | 4.0 | 0.00 | 0.00 | 0.00 | 35 | 1011.4 |
| 20260905052526 | 61 | 360 | 2.0 | 4.0 | 0.00 | 0.00 | 0.00 | 35 | 1011.2 |
| 20260905052028 | 61 | 360 | 1.0 | 5.0 | 0.00 | 0.00 | 0.00 | 36 | 1011.2 |
| 20260905051551 | 61 | 360 | 2.0 | 5.0 | 0.00 | 0.00 | 0.00 | 35 | 1011.2 |
| 20260905051025 | 61 | 360 | 2.0 | 5.0 | 0.00 | 0.00 | 0.00 | 35 | 1011.3 |
| 20260905050525 | 63 | 360 | 0.0 | 3.0 | 0.00 | 0.00 | 0.00 | 35 | 1011.3 |
| 20260905050051 | 65 | 360 | 1.0 | 3.0 | 0.00 | 0.00 | 0.00 | 33 | 1011.3 |
| 20260905045526 | 66 | 0 | 0.0 | 1.0 | 0.00 | 0.00 | 0.00 | 31 | 1011.4 |
| 20260905045029 | 68 | 0 | 0.0 | 3.0 | 0.00 | 0.00 | 0.00 | 30 | 1011.4 |
| 20260905044546 | 69 | 0 | 0.0 | 3.0 | 0.00 | 0.00 | 0.00 | 28 | 1011.2 |
| 20260905044025 | 70 | 0 | 0.0 | 5.0 | 0.00 | 0.00 | 0.00 | 28 | 1011.3 |
| 20260905043525 | 71 | 0 | 0.0 | 5.0 | 0.00 | 0.00 | 0.00 | 26 | 1011.2 |
| 20260905043053 | 73 | 0 | 2.0 | 5.0 | 0.00 | 0.00 | 0.00 | 25 | 1011.2 |
| 20260905042527 | 73 | 360 | 0.0 | 4.0 | 0.00 | 0.00 | 0.00 | 23 | 1011.2 |
| 20260905042026 | 74 | 360 | 1.0 | 4.0 | 0.00 | 0.00 | 0.00 | 23 | 1011.3 |
| 20260905041556 | 74 | 0 | 1.0 | 3.0 | 0.00 | 0.00 | 0.00 | 23 | 1011.2 |
| 20260905041024 | 74 | 360 | 1.0 | 5.0 | 0.00 | 0.00 | 0.00 | 23 | 1011.1 |
| 20260905040527 | 73 | 0 | 2.0 | 5.0 | 0.00 | 0.00 | 0.00 | 24 | 1011.0 |
| 20260905040051 | 72 | 360 | 2.0 | 4.0 | 0.00 | 0.00 | 0.00 | 25 | 1010.9 |
| 20260905035526 | 70 | 360 | 1.0 | 4.0 | 0.00 | 0.00 | 0.00 | 26 | 1010.9 |
| 20260905035025 | 69 | 0 | 0.0 | 4.0 | 0.00 | 0.00 | 0.00 | 27 | 1010.8 |
| 20260905034556 | 68 | 0 | 1.0 | 4.0 | 0.00 | 0.00 | 0.00 | 28 | 1010.8 |
| 20260905034028 | 67 | 0 | 0.0 | 0.0 | 0.00 | 0.00 | 0.00 | 28 | 1010.8 |
| 20260905033526 | 67 | 0 | 0.0 | 4.0 | 0.00 | 0.00 | 0.00 | 30 | 1010.7 |
| 20260905033054 | 66 | 0 | 0.0 | 4.0 | 0.00 | 0.00 | 0.00 | 30 | 1010.7 |
| 20260905032526 | 66 | 360 | 1.0 | 4.0 | 0.00 | 0.00 | 0.00 | 29 | 1010.7 |
| 20260905032026 | 66 | 0 | 0.0 | 2.0 | 0.00 | 0.00 | 0.00 | 31 | 1010.7 |
| 20260905031551 | 67 | 0 | 0.0 | 2.0 | 0.00 | 0.00 | 0.00 | 32 | 1010.8 |
| 20260905031025 | 68 | 360 | 0.0 | 1.0 | 0.00 | 0.00 | 0.00 | 31 | 1010.6 |
| 20260905030526 | 69 | 0 | 0.0 | 2.0 | 0.00 | 0.00 | 0.00 | 29 | 1010.6 |
| 20260905030048 | 70 | 0 | 0.0 | 2.0 | 0.00 | 0.00 | 0.00 | 28 | 1010.5 |
| 20260905025527 | 71 | 0 | 0.0 | 2.0 | 0.00 | 0.00 | 0.00 | 27 | 1010.6 |
| 20260905025025 | 72 | 0 | 0.0 | 3.0 | 0.00 | 0.00 | 0.00 | 25 | 1010.5 |
| 20260905024544 | 73 | 360 | 0.0 | 3.0 | 0.00 | 0.00 | 0.00 | 24 | 1010.5 |
| 20260905024027 | 73 | 360 | 1.0 | 5.0 | 0.00 | 0.00 | 0.00 | 23 | 1010.5 |
| 20260905023525 | 73 | 360 | 2.0 | 5.0 | 0.00 | 0.00 | 0.00 | 23 | 1010.4 |
| 20260905023051 | 74 | 360 | 1.0 | 4.0 | 0.00 | 0.00 | 0.00 | 24 | 1010.4 |
| 20260905022532 | 75 | 360 | 1.0 | 5.0 | 0.00 | 0.00 | 0.00 | 23 | 1010.3 |
| 20260905022028 | 76 | 360 | 2.0 | 6.0 | 0.00 | 0.00 | 0.00 | 22 | 1010.3 |
| 20260905021550 | 76 | 360 | 3.0 | 6.0 | 0.00 | 0.00 | 0.00 | 21 | 1010.2 |
| 20260905021030 | 76 | 360 | 3.0 | 5.0 | 0.00 | 0.00 | 0.00 | 21 | 1010.1 |
| 20260905020525 | 77 | 360 | 2.0 | 5.0 | 0.00 | 0.00 | 0.00 | 21 | 1010.0 |
| 20260905020055 | 77 | 360 | 2.0 | 5.0 | 0.00 | 0.00 | 0.00 | 20 | 1009.9 |
| 20260905015525 | 78 | 360 | 3.0 | 5.0 | 0.00 | 0.00 | 0.00 | 20 | 1010.0 |
| 20260905015028 | 79 | 360 | 2.0 | 5.0 | 0.00 | 0.00 | 0.00 | 19 | 1009.9 |
| 20260905014546 | 79 | 360 | 2.0 | 5.0 | 0.00 | 0.00 | 0.00 | 19 | 1009.9 |
| 20260905014028 | 80 | 360 | 2.0 | 4.0 | 0.00 | 0.00 | 0.00 | 18 | 1009.8 |
| 20260905013529 | 81 | 0 | 0.0 | 0.0 | 0.00 | 0.00 | 0.00 | 18 | 1009.7 |
| 20260905013055 | 82 | 0 | 0.0 | 3.0 | 0.00 | 0.00 | 0.00 | 18 | 1009.6 |
| 20260905012526 | 83 | 0 | 0.0 | 3.0 | 0.00 | 0.00 | 0.00 | 17 | 1009.6 |
| 20260905012026 | 83 | 360 | 1.0 | 3.0 | 0.00 | 0.00 | 0.00 | 17 | 1009.5 |
| 20260905011554 | 84 | 360 | 1.0 | 3.0 | 0.00 | 0.00 | 0.00 | 16 | 1009.6 |
| 20260905011025 | 85 | 360 | 1.0 | 3.0 | 0.00 | 0.00 | 0.00 | 16 | 1009.5 |
| 20260905010525 | 85 | 360 | 0.0 | 3.0 | 0.00 | 0.00 | 0.00 | 17 | 1009.5 |
| 20260905005530 | 87 | 292 | 1.0 | 4.0 | 0.00 | 0.00 | 0.00 | 16 | 1009.4 |
| 20260905005026 | 87 | 286 | 2.0 | 4.0 | 0.00 | 0.00 | 0.00 | 16 | 1009.2 |
| 20260905004547 | 89 | 290 | 1.0 | 4.0 | 0.00 | 0.00 | 0.00 | 15 | 1009.0 |
| 20260905004026 | 90 | 290 | 2.0 | 4.0 | 0.00 | 0.00 | 0.00 | 14 | 1009.0 |
| 20260905003527 | 91 | 289 | 1.0 | 3.0 | 0.00 | 0.00 | 0.00 | 14 | 1008.9 |
| 20260905003051 | 91 | 288 | 1.0 | 5.0 | 0.00 | 0.00 | 0.00 | 14 | 1008.8 |
| 20260905002528 | 91 | 288 | 2.0 | 5.0 | 0.00 | 0.00 | 0.00 | 14 | 1008.9 |
| 20260905002027 | 92 | 296 | 2.0 | 5.0 | 0.00 | 0.00 | 0.00 | 13 | 1008.8 |
| 20260905001551 | 92 | 292 | 2.0 | 8.0 | 0.00 | 0.00 | 0.00 | 13 | 1008.7 |
| 20260905001027 | 92 | 298 | 2.0 | 8.0 | 0.00 | 0.00 | 0.00 | 12 | 1008.6 |
| 20260905000528 | 93 | 288 | 2.0 | 7.0 | 0.00 | 0.00 | 0.00 | 12 | 1008.6 |
| 20260905000050 | 93 | 306 | 3.0 | 7.0 | 0.00 | 0.00 | 0.00 | 12 | 1008.7 |
| 20260904235526 | 93 | 298 | 3.0 | 6.0 | 0.00 | 0.00 | 0.00 | 12 | 1008.6 |
| 20260904235027 | 93 | 306 | 2.0 | 8.0 | 0.00 | 0.00 | 0.00 | 11 | 1008.5 |
| 20260904234550 | 93 | 298 | 2.0 | 9.0 | 0.00 | 0.00 | 0.00 | 12 | 1008.6 |
| 20260904234026 | 93 | 314 | 5.0 | 9.0 | 0.00 | 0.00 | 0.00 | 12 | 1008.6 |
| 20260904233525 | 93 | 294 | 5.0 | 9.0 | 0.00 | 0.00 | 0.00 | 12 | 1008.4 |
| 20260904233050 | 93 | 307 | 3.0 | 9.0 | 0.00 | 0.00 | 0.00 | 12 | 1008.3 |
| 20260904232528 | 94 | 302 | 5.0 | 9.0 | 0.00 | 0.00 | 0.00 | 11 | 1008.4 |
| 20260904232028 | 94 | 286 | 3.0 | 7.0 | 0.00 | 0.00 | 0.00 | 12 | 1008.3 |
| 20260904231551 | 94 | 288 | 4.0 | 9.0 | 0.00 | 0.00 | 0.00 | 12 | 1008.4 |
| 20260904231025 | 94 | 292 | 3.0 | 9.0 | 0.00 | 0.00 | 0.00 | 12 | 1008.3 |
| 20260904230526 | 95 | 289 | 2.0 | 6.0 | 0.00 | 0.00 | 0.00 | 12 | 1008.2 |
| 20260904230057 | 95 | 262 | 2.0 | 9.0 | 0.00 | 0.00 | 0.00 | 12 | 1008.3 |
| 20260904225529 | 95 | 297 | 3.0 | 9.0 | 0.00 | 0.00 | 0.00 | 12 | 1008.3 |
| 20260904225026 | 95 | 75 | 2.0 | 10.0 | 0.00 | 0.00 | 0.00 | 12 | 1008.1 |
| 20260904224605 | 95 | 302 | 4.0 | 10.0 | 0.00 | 0.00 | 0.00 | 12 | 1008.1 |
| 20260904224028 | 95 | 284 | 3.0 | 7.0 | 0.00 | 0.00 | 0.00 | 12 | 1008.0 |
| 20260904223526 | 95 | 290 | 1.0 | 10.0 | 0.00 | 0.00 | 0.00 | 14 | 1008.1 |
| 20260904223055 | 94 | 346 | 2.0 | 10.0 | 0.00 | 0.00 | 0.00 | 13 | 1008.2 |
| 20260904222526 | 94 | 290 | 4.0 | 10.0 | 0.00 | 0.00 | 0.00 | 12 | 1008.1 |
| 20260904222026 | 95 | 275 | 4.0 | 10.0 | 0.00 | 0.00 | 0.00 | 12 | 1008.1 |
| 20260904221550 | 95 | 259 | 3.0 | 8.0 | 0.00 | 0.00 | 0.00 | 12 | 1008.2 |
| 20260904221026 | 95 | 287 | 1.0 | 8.0 | 0.00 | 0.00 | 0.00 | 12 | 1008.1 |
| 20260904220526 | 95 | 116 | 2.0 | 12.0 | 0.00 | 0.00 | 0.00 | 13 | 1008.2 |
| 20260904220049 | 95 | 198 | 5.0 | 12.0 | 0.00 | 0.00 | 0.00 | 12 | 1008.2 |
| 20260904215528 | 95 | 107 | 4.0 | 11.0 | 0.00 | 0.00 | 0.00 | 13 | 1008.1 |
| 20260904215027 | 95 | 41 | 2.0 | 12.0 | 0.00 | 0.00 | 0.00 | 13 | 1008.0 |
| 20260904214556 | 95 | 65 | 3.0 | 12.0 | 0.00 | 0.00 | 0.00 | 13 | 1008.0 |
| 20260904214028 | 95 | 61 | 3.0 | 10.0 | 0.00 | 0.00 | 0.00 | 14 | 1008.1 |
| 20260904213525 | 95 | 38 | 2.0 | 10.0 | 0.00 | 0.00 | 0.00 | 13 | 1008.0 |
| 20260904213054 | 95 | 34 | 3.0 | 10.0 | 0.00 | 0.00 | 0.00 | 14 | 1008.0 |
| 20260904212526 | 95 | 0 | 1.0 | 10.0 | 0.00 | 0.00 | 0.00 | 14 | 1007.8 |
| 20260904212027 | 94 | 78 | 4.0 | 10.0 | 0.00 | 0.00 | 0.00 | 14 | 1008.0 |
| 20260904211558 | 94 | 34 | 1.0 | 9.0 | 0.00 | 0.00 | 0.00 | 13 | 1008.0 |
| 20260904211026 | 94 | 0 | 3.0 | 12.0 | 0.00 | 0.00 | 0.00 | 13 | 1008.0 |
| 20260904210526 | 95 | 52 | 8.0 | 15.0 | 0.00 | 0.00 | 0.00 | 13 | 1007.9 |
| 20260904210056 | 95 | 46 | 4.0 | 15.0 | 0.00 | 0.00 | 0.00 | 13 | 1007.9 |
| 20260904205528 | 95 | 50 | 3.0 | 10.0 | 0.00 | 0.00 | 0.00 | 14 | 1008.0 |
| 20260904205026 | 95 | 296 | 1.0 | 7.0 | 0.00 | 0.00 | 0.00 | 14 | 1007.9 |
| 20260904204547 | 94 | 313 | 2.0 | 7.0 | 0.00 | 0.00 | 0.00 | 14 | 1008.0 |
| 20260904204029 | 94 | 311 | 2.0 | 9.0 | 0.00 | 0.00 | 0.00 | 14 | 1008.0 |
| 20260904203526 | 95 | 34 | 1.0 | 9.0 | 0.00 | 0.00 | 0.00 | 14 | 1008.1 |
| 20260904203054 | 95 | 41 | 3.0 | 11.0 | 0.00 | 0.00 | 0.00 | 15 | 1008.1 |
| 20260904202525 | 95 | 323 | 4.0 | 11.0 | 0.00 | 0.00 | 0.00 | 15 | 1008.2 |
| 20260904202025 | 95 | 330 | 4.0 | 11.0 | 0.00 | 0.00 | 0.00 | 14 | 1008.3 |
| 20260904201552 | 95 | 291 | 3.0 | 9.0 | 0.00 | 0.00 | 0.00 | 14 | 1008.2 |
| 20260904201028 | 95 | 284 | 3.0 | 14.0 | 0.00 | 0.00 | 0.00 | 14 | 1008.1 |
| 20260904200527 | 94 | 300 | 6.0 | 14.0 | 0.00 | 0.00 | 0.00 | 14 | 1008.1 |
| 20260904200049 | 95 | 264 | 4.0 | 13.0 | 0.00 | 0.00 | 0.00 | 14 | 1008.1 |
| 20260904195527 | 95 | 229 | 2.0 | 10.0 | 0.00 | 0.00 | 0.00 | 14 | 1008.3 |
| 20260904195026 | 94 | 319 | 2.0 | 13.0 | 0.00 | 0.00 | 0.00 | 15 | 1008.3 |
| 20260904194545 | 94 | 294 | 6.0 | 13.0 | 0.00 | 0.00 | 0.00 | 14 | 1008.3 |
| 20260904194027 | 94 | 261 | 4.0 | 9.0 | 0.00 | 0.00 | 0.00 | 15 | 1008.3 |
| 20260904193527 | 94 | 293 | 3.0 | 9.0 | 0.00 | 0.00 | 0.00 | 14 | 1008.2 |
| 20260904193058 | 94 | 284 | 5.0 | 12.0 | 0.00 | 0.00 | 0.00 | 15 | 1008.3 |
| 20260904192527 | 94 | 270 | 5.0 | 12.0 | 0.00 | 0.00 | 0.00 | 14 | 1008.5 |
| 20260904192026 | 94 | 296 | 6.0 | 11.0 | 0.00 | 0.00 | 0.00 | 14 | 1008.4 |
| 20260904191551 | 94 | 226 | 5.0 | 14.0 | 0.00 | 0.00 | 0.00 | 14 | 1008.4 |
| 20260904191025 | 93 | 247 | 5.0 | 14.0 | 0.00 | 0.00 | 0.00 | 15 | 1008.5 |
| 20260904190528 | 94 | 309 | 4.0 | 12.0 | 0.00 | 0.00 | 0.00 | 14 | 1008.4 |
| 20260904190051 | 93 | 317 | 6.0 | 12.0 | 0.00 | 0.00 | 0.00 | 15 | 1008.6 |
| 20260904185527 | 93 | 271 | 4.0 | 15.0 | 0.00 | 0.00 | 0.00 | 16 | 1008.6 |
| 20260904185027 | 93 | 301 | 7.0 | 15.0 | 0.00 | 0.00 | 0.00 | 15 | 1008.7 |
| 20260904184545 | 93 | 267 | 5.0 | 14.0 | 0.00 | 0.00 | 0.00 | 14 | 1008.8 |
| 20260904184027 | 93 | 282 | 5.0 | 15.0 | 0.00 | 0.00 | 0.00 | 14 | 1008.8 |
| 20260904183529 | 93 | 287 | 7.0 | 15.0 | 0.00 | 0.00 | 0.00 | 15 | 1008.8 |
| 20260904183053 | 92 | 292 | 3.0 | 17.0 | 0.00 | 0.00 | 0.00 | 15 | 1008.9 |
| 20260904182530 | 92 | 244 | 8.0 | 17.0 | 0.00 | 0.00 | 0.00 | 16 | 1008.9 |
| 20260904182031 | 92 | 225 | 6.0 | 15.0 | 0.00 | 0.00 | 0.00 | 16 | 1009.0 |
| 20260904181549 | 92 | 217 | 4.0 | 12.0 | 0.00 | 0.00 | 0.00 | 16 | 1009.2 |
| 20260904181030 | 92 | 286 | 4.0 | 12.0 | 0.00 | 0.00 | 0.00 | 17 | 1009.2 |
| 20260904180527 | 91 | 323 | 3.0 | 11.0 | 0.00 | 0.00 | 0.00 | 17 | 1009.4 |
| 20260904180047 | 91 | 227 | 3.0 | 14.0 | 0.00 | 0.00 | 0.00 | 16 | 1009.5 |
| 20260904175528 | 91 | 329 | 4.0 | 14.0 | 0.00 | 0.00 | 0.00 | 17 | 1009.6 |
| 20260904175026 | 91 | 275 | 7.0 | 14.0 | 0.00 | 0.00 | 0.00 | 17 | 1009.7 |
| 20260904174549 | 91 | 291 | 5.0 | 19.0 | 0.00 | 0.00 | 0.00 | 17 | 1009.6 |
| 20260904174026 | 91 | 210 | 5.0 | 19.0 | 0.00 | 0.00 | 0.00 | 18 | 1009.6 |
| 20260904173525 | 91 | 255 | 7.0 | 13.0 | 0.00 | 0.00 | 0.00 | 17 | 1009.7 |
| 20260904173056 | 91 | 292 | 4.0 | 11.0 | 0.00 | 0.00 | 0.00 | 18 | 1009.6 |
| 20260904172528 | 91 | 268 | 4.0 | 11.0 | 0.00 | 0.00 | 0.00 | 18 | 1009.7 |
| 20260904172027 | 91 | 288 | 4.0 | 11.0 | 0.00 | 0.00 | 0.00 | 18 | 1009.6 |
| 20260904171558 | 91 | 302 | 3.0 | 9.0 | 0.00 | 0.00 | 0.00 | 18 | 1009.7 |
| 20260904171026 | 90 | 291 | 3.0 | 11.0 | 0.00 | 0.00 | 0.00 | 18 | 1009.5 |
| 20260904170527 | 90 | 273 | 4.0 | 11.0 | 0.00 | 0.00 | 0.00 | 18 | 1009.7 |
| 20260904170052 | 90 | 263 | 5.0 | 11.0 | 0.00 | 0.00 | 0.00 | 18 | 1009.6 |
| 20260904165531 | 90 | 252 | 4.0 | 9.0 | 0.00 | 0.00 | 0.00 | 17 | 1009.6 |
| 20260904165027 | 90 | 300 | 3.0 | 9.0 | 0.00 | 0.00 | 0.00 | 18 | 1009.5 |
| 20260904164546 | 89 | 296 | 3.0 | 9.0 | 0.00 | 0.00 | 0.00 | 19 | 1009.5 |
| 20260904164027 | 89 | 289 | 3.0 | 10.0 | 0.00 | 0.00 | 0.00 | 18 | 1009.5 |
| 20260904163531 | 89 | 288 | 3.0 | 10.0 | 0.00 | 0.00 | 0.00 | 19 | 1009.6 |
| 20260904163044 | 88 | 313 | 3.0 | 15.0 | 0.00 | 0.00 | 0.00 | 20 | 1009.6 |
| 20260904162526 | 88 | 296 | 6.0 | 15.0 | 0.00 | 0.00 | 0.00 | 20 | 1009.6 |
| 20260904162026 | 88 | 293 | 6.0 | 12.0 | 0.00 | 0.00 | 0.00 | 19 | 1009.6 |
| 20260904161551 | 87 | 298 | 2.0 | 7.0 | 0.00 | 0.00 | 0.00 | 20 | 1009.7 |
| 20260904161028 | 87 | 286 | 3.0 | 8.0 | 0.00 | 0.00 | 0.00 | 20 | 1009.7 |
| 20260904160527 | 86 | 278 | 3.0 | 8.0 | 0.00 | 0.00 | 0.00 | 20 | 1009.6 |
| 20260904160051 | 86 | 302 | 2.0 | 11.0 | 0.00 | 0.00 | 0.00 | 20 | 1009.7 |
| 20260904155527 | 85 | 279 | 2.0 | 11.0 | 0.00 | 0.00 | 0.00 | 21 | 1009.7 |
| 20260904155025 | 85 | 268 | 4.0 | 11.0 | 0.00 | 0.00 | 0.00 | 21 | 1009.7 |
| 20260904154545 | 84 | 285 | 4.0 | 9.0 | 0.00 | 0.00 | 0.00 | 21 | 1009.7 |
| 20260904154025 | 84 | 286 | 3.0 | 11.0 | 0.00 | 0.00 | 0.00 | 21 | 1009.7 |
| 20260904153526 | 83 | 360 | 3.0 | 11.0 | 0.00 | 0.00 | 0.00 | 22 | 1009.7 |
| 20260904153054 | 82 | 360 | 5.0 | 11.0 | 0.00 | 0.00 | 0.00 | 22 | 1009.7 |
| 20260904152528 | 81 | 360 | 4.0 | 9.0 | 0.00 | 0.00 | 0.00 | 22 | 1009.6 |
| 20260904152025 | 81 | 360 | 3.0 | 12.0 | 0.00 | 0.00 | 0.00 | 23 | 1009.6 |
| 20260904151549 | 80 | 360 | 3.0 | 12.0 | 0.00 | 0.00 | 0.00 | 24 | 1009.7 |
| 20260904151026 | 79 | 360 | 3.0 | 12.0 | 0.00 | 0.00 | 0.00 | 25 | 1009.6 |
| 20260904150527 | 78 | 360 | 4.0 | 12.0 | 0.00 | 0.00 | 0.00 | 24 | 1009.5 |
| 20260904150047 | 78 | 360 | 6.0 | 12.0 | 0.00 | 0.00 | 0.00 | 25 | 1009.5 |
| 20260904145530 | 78 | 360 | 5.0 | 11.0 | 0.00 | 0.00 | 0.00 | 25 | 1009.6 |
| 20260904145027 | 77 | 360 | 4.0 | 11.0 | 0.00 | 0.00 | 0.00 | 26 | 1009.7 |
| 20260904144545 | 77 | 360 | 5.0 | 11.0 | 0.00 | 0.00 | 0.00 | 26 | 1009.7 |
| 20260904144025 | 76 | 360 | 3.0 | 9.0 | 0.00 | 0.00 | 0.00 | 26 | 1009.7 |
| 20260904143525 | 75 | 360 | 3.0 | 8.0 | 0.00 | 0.00 | 0.00 | 28 | 1009.6 |
| 20260904143049 | 73 | 360 | 1.0 | 6.0 | 0.00 | 0.00 | 0.00 | 31 | 1009.6 |
| 20260904142527 | 71 | 360 | 2.0 | 6.0 | 0.00 | 0.00 | 0.00 | 31 | 1009.8 |
| 20260904142027 | 70 | 0 | 0.0 | 3.0 | 0.00 | 0.00 | 0.00 | 37 | 1009.7 |
| 20260904141547 | 68 | 360 | 0.0 | 2.0 | 0.00 | 0.00 | 0.00 | 33 | 1009.7 |
| 20260904141025 | 66 | 0 | 0.0 | 3.0 | 0.00 | 0.00 | 0.00 | 35 | 1009.8 |
| 20260904140525 | 64 | 0 | 0.0 | 3.0 | 0.00 | 0.00 | 0.00 | 36 | 1009.9 |
| 20260904140106 | 62 | 0 | 0.0 | 0.0 | 0.00 | 0.00 | 0.00 | 40 | 1009.9 |
| 20260904135528 | 62 | 0 | 0.0 | 2.0 | 0.00 | 0.00 | 0.00 | 45 | 1009.9 |
| 20260904135030 | 61 | 0 | 0.0 | 6.0 | 0.00 | 0.00 | 0.00 | 45 | 1009.7 |
| 20260904134604 | 60 | 360 | 2.0 | 6.0 | 0.00 | 0.00 | 0.00 | 43 | 1009.7 |
| 20260904134031 | 58 | 360 | 3.0 | 5.0 | 0.00 | 0.00 | 0.00 | 45 | 1009.8 |
| 20260904133528 | 57 | 360 | 2.0 | 4.0 | 0.00 | 0.00 | 0.00 | 47 | 1009.8 |
| 20260904133055 | 56 | 360 | 2.0 | 6.0 | 0.00 | 0.00 | 0.00 | 47 | 1009.8 |
| 20260904132531 | 55 | 360 | 2.0 | 6.0 | 0.00 | 0.00 | 0.00 | 47 | 1009.7 |
| 20260904132029 | 55 | 360 | 4.0 | 9.0 | 0.00 | 0.00 | 0.00 | 48 | 1009.7 |
| 20260904131547 | 55 | 360 | 4.0 | 9.0 | 0.00 | 0.00 | 0.00 | 48 | 1009.5 |
| 20260904131027 | 54 | 360 | 5.0 | 9.0 | 0.00 | 0.00 | 0.00 | 48 | 1009.6 |
| 20260904130526 | 54 | 360 | 6.0 | 9.0 | 0.00 | 0.00 | 0.00 | 48 | 1009.5 |
| 20260904130051 | 54 | 360 | 3.0 | 9.0 | 0.00 | 0.00 | 0.00 | 49 | 1009.5 |
| 20260904125528 | 53 | 360 | 4.0 | 9.0 | 0.00 | 0.00 | 0.00 | 48 | 1009.5 |
| 20260904125026 | 52 | 360 | 3.0 | 5.0 | 0.00 | 0.00 | 0.00 | 51 | 1009.4 |
| 20260904124555 | 51 | 360 | 2.0 | 4.0 | 0.00 | 0.00 | 0.00 | 54 | 1009.5 |
| 20260904124027 | 51 | 360 | 0.0 | 5.0 | 0.00 | 0.00 | 0.00 | 56 | 1009.4 |
| 20260904123528 | 51 | 360 | 1.0 | 5.0 | 0.00 | 0.00 | 0.00 | 54 | 1009.3 |
| 20260904123049 | 51 | 360 | 3.0 | 5.0 | 0.00 | 0.00 | 0.00 | 54 | 1009.4 |
| 20260904122526 | 51 | 360 | 1.0 | 5.0 | 0.00 | 0.00 | 0.00 | 56 | 1009.3 |
| 20260904122030 | 50 | 360 | 2.0 | 5.0 | 0.00 | 0.00 | 0.00 | 55 | 1009.4 |
| 20260904121552 | 50 | 360 | 2.0 | 8.0 | 0.00 | 0.00 | 0.00 | 57 | 1009.4 |
| 20260904121025 | 50 | 0 | 0.0 | 8.0 | 0.00 | 0.00 | 0.00 | 58 | 1009.4 |
| 20260904120529 | 51 | 360 | 4.0 | 8.0 | 0.00 | 0.00 | 0.00 | 56 | 1009.4 |
| 20260904120056 | 50 | 360 | 4.0 | 6.0 | 0.00 | 0.00 | 0.00 | 57 | 1009.5 |
| 20260904115528 | 49 | 0 | 1.0 | 4.0 | 0.00 | 0.00 | 0.00 | 60 | 1009.5 |
| 20260904115028 | 50 | 360 | 1.0 | 4.0 | 0.00 | 0.00 | 0.00 | 59 | 1009.5 |
| 20260904114546 | 50 | 360 | 2.0 | 5.0 | 0.00 | 0.00 | 0.00 | 59 | 1009.4 |
| 20260904114030 | 50 | 0 | 1.0 | 5.0 | 0.00 | 0.00 | 0.00 | 59 | 1009.4 |
| 20260904113526 | 51 | 360 | 2.0 | 5.0 | 0.00 | 0.00 | 0.00 | 56 | 1009.4 |
| 20260904113045 | 52 | 360 | 1.0 | 5.0 | 0.00 | 0.00 | 0.00 | 55 | 1009.5 |
| 20260904112532 | 54 | 0 | 1.0 | 5.0 | 0.00 | 0.00 | 0.00 | 53 | 1009.5 |
| 20260904112026 | 55 | 360 | 0.0 | 4.0 | 0.00 | 0.00 | 0.00 | 52 | 1009.5 |
| 20260904111551 | 56 | 360 | 0.0 | 5.0 | 0.00 | 0.00 | 0.00 | 51 | 1009.5 |
| 20260904111025 | 56 | 360 | 1.0 | 5.0 | 0.00 | 0.00 | 0.00 | 50 | 1009.3 |
| 20260904110527 | 56 | 360 | 3.0 | 5.0 | 0.00 | 0.00 | 0.00 | 50 | 1009.3 |
| 20260904110046 | 56 | 0 | 2.0 | 4.0 | 0.00 | 0.00 | 0.00 | 50 | 1009.3 |
| 20260904105527 | 55 | 360 | 2.0 | 3.0 | 0.00 | 0.00 | 0.00 | 51 | 1009.3 |
| 20260904105026 | 56 | 360 | 0.0 | 3.0 | 0.00 | 0.00 | 0.00 | 51 | 1009.3 |
| 20260904104549 | 56 | 0 | 0.0 | 2.0 | 0.00 | 0.00 | 0.00 | 50 | 1009.4 |
| 20260904104028 | 56 | 0 | 0.0 | 3.0 | 0.00 | 0.00 | 0.00 | 49 | 1009.4 |
| 20260904103526 | 56 | 0 | 0.0 | 3.0 | 0.00 | 0.00 | 0.00 | 51 | 1009.5 |
| 20260904103047 | 56 | 360 | 0.0 | 3.0 | 0.00 | 0.00 | 0.00 | 50 | 1009.5 |
| 20260904102531 | 56 | 360 | 1.0 | 2.0 | 0.00 | 0.00 | 0.00 | 51 | 1009.5 |
| 20260904102027 | 55 | 0 | 0.0 | 4.0 | 0.00 | 0.00 | 0.00 | 51 | 1009.5 |
| 20260904101552 | 55 | 0 | 1.0 | 4.0 | 0.00 | 0.00 | 0.00 | 51 | 1009.5 |
| 20260904101026 | 54 | 360 | 2.0 | 5.0 | 0.00 | 0.00 | 0.00 | 51 | 1009.6 |
| 20260904100526 | 54 | 360 | 3.0 | 5.0 | 0.00 | 0.00 | 0.00 | 52 | 1009.6 |
| 20260904100046 | 55 | 360 | 0.0 | 5.0 | 0.00 | 0.00 | 0.00 | 52 | 1009.6 |
| 20260904095527 | 55 | 360 | 2.0 | 5.0 | 0.00 | 0.00 | 0.00 | 51 | 1009.5 |
| 20260904095028 | 55 | 360 | 3.0 | 5.0 | 0.00 | 0.00 | 0.00 | 51 | 1009.5 |
| 20260904094550 | 54 | 360 | 3.0 | 5.0 | 0.00 | 0.00 | 0.00 | 51 | 1009.6 |
| 20260904094025 | 54 | 360 | 2.0 | 5.0 | 0.00 | 0.00 | 0.00 | 53 | 1009.5 |
| 20260904093528 | 54 | 0 | 0.0 | 5.0 | 0.00 | 0.00 | 0.00 | 53 | 1009.5 |
| 20260904093049 | 53 | 360 | 3.0 | 5.0 | 0.00 | 0.00 | 0.00 | 53 | 1009.7 |
| 20260904092618 | 53 | 360 | 2.0 | 4.0 | 0.00 | 0.00 | 0.00 | 54 | 1009.7 |
| 20260904092526 | 53 | 360 | 2.0 | 4.0 | 0.00 | 0.00 | 0.00 | 54 | 1009.7 |
| 20260904092029 | 54 | 360 | 2.0 | 4.0 | 0.00 | 0.00 | 0.00 | 54 | 1009.5 |
| 20260904091549 | 54 | 360 | 1.0 | 3.0 | 0.00 | 0.00 | 0.00 | 54 | 1009.3 |
| 20260904091026 | 54 | 360 | 0.0 | 3.0 | 0.00 | 0.00 | 0.00 | 53 | 1009.3 |
| 20260904090527 | 55 | 360 | 0.0 | 4.0 | 0.00 | 0.00 | 0.00 | 53 | 1009.4 |
| 20260904090051 | 54 | 0 | 1.0 | 4.0 | 0.00 | 0.00 | 0.00 | 53 | 1009.5 |
| 20260904085527 | 53 | 360 | 1.0 | 4.0 | 0.00 | 0.00 | 0.00 | 55 | 1009.5 |
| 20260904085026 | 52 | 360 | 2.0 | 4.0 | 0.00 | 0.00 | 0.00 | 57 | 1009.6 |
| 20260904084546 | 51 | 360 | 1.0 | 4.0 | 0.00 | 0.00 | 0.00 | 59 | 1009.7 |
| 20260904084030 | 51 | 360 | 1.0 | 4.0 | 0.00 | 0.00 | 0.00 | 59 | 1009.8 |
| 20260904083525 | 52 | 360 | 1.0 | 4.0 | 0.00 | 0.00 | 0.00 | 58 | 1009.7 |
| 20260904083054 | 52 | 0 | 0.0 | 4.0 | 0.00 | 0.00 | 0.00 | 57 | 1009.7 |
| 20260904082525 | 53 | 0 | 0.0 | 4.0 | 0.00 | 0.00 | 0.00 | 57 | 1009.8 |
| 20260904082027 | 52 | 360 | 2.0 | 4.0 | 0.00 | 0.00 | 0.00 | 57 | 1009.8 |
| 20260904081552 | 52 | 360 | 1.0 | 4.0 | 0.00 | 0.00 | 0.00 | 57 | 1009.7 |
| 20260904081027 | 52 | 360 | 2.0 | 4.0 | 0.00 | 0.00 | 0.00 | 57 | 1009.8 |
| 20260904080529 | 52 | 0 | 0.0 | 2.0 | 0.00 | 0.00 | 0.00 | 58 | 1010.0 |
| 20260904080049 | 53 | 360 | 1.0 | 3.0 | 0.00 | 0.00 | 0.00 | 56 | 1010.0 |
| 20260904075526 | 53 | 360 | 1.0 | 4.0 | 0.00 | 0.00 | 0.00 | 56 | 1010.0 |
| 20260904075026 | 53 | 360 | 2.0 | 4.0 | 0.00 | 0.00 | 0.00 | 55 | 1009.8 |
| 20260904074550 | 54 | 360 | 2.0 | 4.0 | 0.00 | 0.00 | 0.00 | 54 | 1010.1 |
| 20260904074028 | 54 | 0 | 0.0 | 1.0 | 0.00 | 0.00 | 0.00 | 54 | 1010.2 |
| 20260904073528 | 55 | 0 | 0.0 | 3.0 | 0.00 | 0.00 | 0.00 | 54 | 1010.3 |
| 20260904073058 | 55 | 0 | 0.0 | 3.0 | 0.00 | 0.00 | 0.00 | 53 | 1010.2 |
| 20260904072524 | 55 | 0 | 0.0 | 4.0 | 0.00 | 0.00 | 0.00 | 52 | 1010.4 |
| 20260904072031 | 55 | 0 | 1.0 | 4.0 | 0.00 | 0.00 | 0.00 | 52 | 1010.4 |
| 20260904071548 | 55 | 360 | 2.0 | 4.0 | 0.00 | 0.00 | 0.00 | 52 | 1010.4 |
| 20260904071025 | 56 | 360 | 1.0 | 3.0 | 0.00 | 0.00 | 0.00 | 52 | 1010.3 |
| 20260904070526 | 56 | 0 | 0.0 | 3.0 | 0.00 | 0.00 | 0.00 | 52 | 1010.2 |
| 20260904070048 | 56 | 360 | 1.0 | 3.0 | 0.00 | 0.00 | 0.00 | 51 | 1010.3 |
| 20260904065526 | 56 | 0 | 1.0 | 5.0 | 0.00 | 0.00 | 0.00 | 51 | 1010.3 |
| 20260904065026 | 56 | 360 | 2.0 | 5.0 | 0.00 | 0.00 | 0.00 | 52 | 1010.4 |
| 20260904064555 | 56 | 0 | 1.0 | 4.0 | 0.00 | 0.00 | 0.00 | 53 | 1010.3 |
| 20260904064025 | 55 | 360 | 1.0 | 3.0 | 0.00 | 0.00 | 0.00 | 53 | 1010.4 |
| 20260904063528 | 55 | 0 | 0.0 | 0.0 | 0.00 | 0.00 | 0.00 | 55 | 1010.3 |
| 20260904063102 | 54 | 0 | 0.0 | 0.0 | 0.00 | 0.00 | 0.00 | 55 | 1010.3 |